GW0996 Weather Reports


time (UTC)temp
F
wind
direction
speed
knots
gust
knots
rain 1hr
in
rain 24hr
in
rain mn
in
humidity
%
barometer
mb
20221203062108 42 355 0.0 0.9 0.00 0.14 0.11 99 1013.8
20221203061543 42 355 0.0 0.0 0.00 0.14 0.11 98 1013.8
20221203061021 42 356 0.0 0.0 0.00 0.14 0.11 98 1013.8
20221203060526 43 356 0.0 0.0 0.00 0.14 0.11 98 1013.8
20221203055508 43 356 0.0 0.0 0.00 0.14 0.11 99 1013.8
20221203054445 42 356 0.0 0.0 0.00 0.14 0.11 99 1013.8
20221203053913 42 356 0.0 0.0 0.00 0.14 0.11 99 1013.8
20221203053409 42 359 0.0 0.0 0.00 0.14 0.11 98 1013.8
20221203052907 42 356 0.0 0.0 0.00 0.14 0.11 98 1013.8
20221203052402 42 357 0.0 0.0 0.00 0.14 0.11 98 1013.8
20221203051847 42 347 0.0 0.0 0.00 0.14 0.11 98 1013.8
20221203051342 42 5 0.0 0.0 0.00 0.14 0.11 98 1013.8
20221203050829 42 5 0.0 0.0 0.00 0.14 0.11 98 1013.8
20221203050254 42 5 0.0 0.0 0.00 0.14 0.11 98 1013.8
20221203045751 43 5 0.0 0.0 0.00 0.14 0.11 98 1013.8
20221203044746 43 334 0.0 0.0 0.00 0.14 0.11 98 1013.8
20221203044227 43 334 0.0 0.0 0.00 0.14 0.11 98 1013.8
20221203043726 43 334 0.0 0.0 0.00 0.14 0.11 98 1013.8
20221203043219 43 334 0.0 0.0 0.00 0.14 0.11 98 1013.8
20221203042718 43 333 0.0 0.0 0.00 0.14 0.11 98 1013.8
20221203041633 43 333 0.0 0.0 0.00 0.14 0.11 98 1013.8
20221203041131 43 332 0.0 0.0 0.00 0.14 0.11 98 1013.8
20221203040616 43 359 0.0 0.0 0.01 0.14 0.11 98 1013.8
20221203035603 43 359 0.0 0.0 0.01 0.14 0.11 98 1013.8
20221203035032 42 359 0.0 0.0 0.01 0.14 0.11 98 1013.8
20221203034533 42 359 0.0 0.0 0.01 0.14 0.11 98 1013.8
20221203033509 43 359 0.0 0.0 0.01 0.14 0.11 98 1013.8
20221203033008 43 359 0.0 0.0 0.01 0.14 0.11 98 1013.8
20221203032458 43 359 0.0 0.0 0.01 0.14 0.11 98 1013.8
20221203031926 43 359 0.0 0.0 0.01 0.14 0.11 98 1013.8
20221203031428 42 359 0.0 0.0 0.01 0.14 0.11 98 1014.8
20221203030918 42 37 0.0 0.0 0.01 0.14 0.11 98 1014.8
20221203030412 42 37 0.0 0.0 0.00 0.13 0.10 98 1014.8
20221203025359 42 356 0.0 0.0 0.00 0.13 0.10 98 1013.8
20221203024841 42 356 0.0 0.0 0.00 0.13 0.10 98 1013.8
20221203023811 42 356 0.0 0.0 0.00 0.13 0.10 98 1014.8
20221203023306 42 356 0.0 0.0 0.00 0.13 0.10 98 1014.8
20221203022802 42 356 0.0 0.0 0.01 0.13 0.10 98 1014.8
20221203022258 42 356 0.0 0.0 0.01 0.13 0.10 98 1014.8
20221203021754 42 356 0.0 0.0 0.01 0.13 0.10 98 1014.8
20221203021233 42 356 0.0 0.0 0.01 0.13 0.10 98 1014.8
20221203020707 42 356 0.0 0.0 0.02 0.13 0.10 98 1014.8
20221203020157 42 356 0.0 0.0 0.02 0.13 0.10 98 1014.8
20221203015620 42 356 0.0 0.0 0.03 0.13 0.10 98 1014.8
20221203015055 42 356 0.0 0.0 0.04 0.13 0.10 98 1014.8
20221203014532 42 356 0.0 0.0 0.04 0.13 0.10 98 1014.8
20221203013514 42 356 0.0 0.0 0.05 0.13 0.10 97 1014.8
20221203013010 42 356 0.0 0.0 0.06 0.13 0.10 97 1014.8
20221203012445 42 356 0.0 0.0 0.05 0.12 0.09 97 1014.8
20221203011944 42 357 0.0 0.0 0.06 0.12 0.09 97 1014.8
20221203011431 42 357 0.0 0.0 0.06 0.12 0.09 97 1014.8
20221203010916 42 357 0.0 0.0 0.06 0.11 0.08 97 1014.8
20221203010426 42 359 0.0 0.0 0.06 0.11 0.08 97 1014.8
20221203005909 42 359 0.0 0.0 0.05 0.10 0.07 97 1014.8
20221203004855 42 356 0.0 0.0 0.05 0.09 0.06 97 1014.8
20221203004340 42 356 0.0 0.0 0.05 0.09 0.06 97 1014.8
20221203003820 42 356 0.0 0.0 0.04 0.08 0.05 97 1014.8
20221203003316 42 356 0.0 0.0 0.03 0.07 0.04 97 1014.8
20221203002754 42 356 0.0 0.0 0.03 0.07 0.04 97 1014.8
20221203002228 42 356 0.0 0.0 0.02 0.06 0.03 97 1014.8
20221203001706 42 356 0.0 0.0 0.02 0.06 0.03 97 1014.8
20221203000128 42 356 0.0 0.0 0.02 0.05 0.02 97 1014.8
20221202235546 42 356 0.0 0.0 0.02 0.05 0.02 97 1014.8
20221202235049 42 356 0.0 0.0 0.01 0.04 0.01 97 1014.8
20221202234541 42 356 0.0 0.0 0.01 0.04 0.01 97 1014.8
20221202234009 42 356 0.0 0.0 0.01 0.04 0.01 97 1014.8
20221202233456 42 356 0.0 0.0 0.01 0.04 0.01 97 1014.8
20221202232939 42 356 0.0 0.0 0.01 0.04 0.01 97 1014.8
20221202232438 42 356 0.0 0.0 0.02 0.04 0.01 97 1014.8
20221202231935 42 356 0.0 0.0 0.02 0.04 0.01 97 1014.8
20221202231422 42 356 0.0 0.0 0.01 0.03 0.00 97 1014.8
20221202230909 42 356 0.0 0.0 0.01 0.03 0.00 97 1014.8
20221202230409 42 356 0.0 0.0 0.01 0.03 0.00 97 1014.8
20221202225258 42 356 0.0 0.0 0.01 0.03 0.03 97 1015.8
20221202224746 42 356 0.0 0.0 0.01 0.03 0.03 97 1015.8
20221202224233 42 356 0.0 0.0 0.01 0.03 0.03 97 1015.8
20221202223734 42 356 0.0 0.0 0.01 0.03 0.03 97 1015.8
20221202223219 42 356 0.0 0.0 0.01 0.03 0.03 97 1015.8
20221202222141 42 356 0.0 0.0 0.00 0.02 0.02 97 1015.8
20221202221126 42 356 0.0 0.0 0.00 0.02 0.02 97 1014.8
20221202220111 42 356 0.0 0.0 0.00 0.02 0.02 97 1015.8
20221202215046 42 356 0.0 0.0 0.00 0.02 0.02 97 1015.8
20221202214533 42 356 0.0 0.0 0.00 0.02 0.02 97 1015.8
20221202214034 42 356 0.0 0.0 0.00 0.02 0.02 97 1015.8
20221202213521 42 356 0.0 0.0 0.00 0.02 0.02 96 1015.8
20221202213017 42 356 0.0 0.0 0.00 0.02 0.02 96 1015.8
20221202212503 42 356 0.0 0.0 0.00 0.02 0.02 96 1015.8
20221202211929 42 356 0.0 0.0 0.00 0.02 0.02 96 1015.8
20221202211417 42 356 0.0 0.0 0.00 0.02 0.02 96 1014.8
20221202210844 42 356 0.0 0.0 0.00 0.02 0.02 96 1014.8
20221202210324 42 356 0.0 0.0 0.00 0.02 0.02 96 1014.8
20221202205812 42 356 0.0 0.0 0.00 0.02 0.02 96 1015.8
20221202205311 42 356 0.0 0.0 0.00 0.02 0.02 96 1015.8
20221202204758 42 356 0.0 0.0 0.00 0.02 0.02 96 1015.8
20221202203732 42 356 0.0 0.0 0.01 0.02 0.02 96 1015.8
20221202203230 42 356 0.0 0.0 0.01 0.02 0.02 96 1015.8
20221202202720 42 356 0.0 0.0 0.02 0.02 0.02 96 1015.8
20221202202205 42 356 0.0 0.0 0.02 0.02 0.02 95 1015.8
20221202201703 42 356 0.0 0.0 0.02 0.02 0.02 95 1015.8
20221202200656 42 356 0.0 0.0 0.02 0.02 0.02 95 1015.8
20221202200148 42 356 0.0 0.0 0.02 0.02 0.02 96 1015.8
20221202195617 42 356 0.0 0.0 0.02 0.02 0.02 95 1015.8
20221202195059 42 356 0.0 0.0 0.02 0.02 0.02 95 1015.8
20221202194556 42 356 0.0 0.0 0.02 0.02 0.02 95 1015.8
20221202194055 42 356 0.0 0.0 0.01 0.01 0.02 95 1015.8
20221202193527 42 356 0.0 0.0 0.01 0.01 0.01 95 1015.8
20221202193008 42 356 0.0 0.0 0.00 0.00 0.00 95 1015.8
20221202192502 42 356 0.0 0.0 0.00 0.00 0.00 95 1015.8
20221202191941 42 356 0.0 0.0 0.00 0.00 0.00 95 1015.8
20221202191439 42 356 0.0 0.0 0.00 0.00 0.00 95 1015.8
20221202190925 42 356 0.0 0.0 0.00 0.00 0.00 95 1015.8
20221202190424 42 356 0.0 0.0 0.00 0.00 0.00 94 1015.8
20221202185911 42 356 0.0 0.0 0.00 0.00 0.00 95 1015.8
20221202185411 42 356 0.0 0.0 0.00 0.00 0.00 95 1015.8
20221202184859 42 358 0.0 0.0 0.00 0.00 0.00 94 1015.8
20221202184345 42 358 0.0 0.0 0.00 0.00 0.00 94 1015.8
20221202183845 42 358 0.0 0.0 0.00 0.00 0.00 95 1015.8
20221202182313 42 348 0.0 0.0 0.00 0.00 0.00 95 1015.8
20221202181800 42 348 0.0 0.0 0.00 0.00 0.00 95 1015.8
20221202180745 42 9 0.0 0.0 0.00 0.00 0.00 95 1015.8
20221202180235 42 9 0.0 0.0 0.00 0.00 0.00 95 1015.8
20221202175720 42 9 0.0 0.0 0.00 0.00 0.00 94 1015.8
20221202174706 42 10 0.0 0.0 0.00 0.00 0.00 94 1015.8
20221202174202 42 10 0.0 0.0 0.00 0.00 0.00 94 1015.8
20221202173157 42 8 0.0 0.0 0.00 0.00 0.00 94 1015.8
20221202172656 42 8 0.0 0.0 0.00 0.00 0.00 94 1015.8
20221202172122 42 8 0.0 0.0 0.00 0.00 0.00 94 1015.8
20221202171622 42 8 0.0 0.0 0.00 0.00 0.00 94 1015.8
20221202171108 42 8 0.0 0.0 0.00 0.00 0.00 94 1015.8
20221202170554 42 8 0.0 0.0 0.00 0.00 0.00 94 1015.8
20221202170042 42 8 0.0 0.0 0.00 0.00 0.00 94 1015.8
20221202165528 42 8 0.0 0.0 0.00 0.00 0.00 93 1015.8
20221202165016 42 8 0.0 0.0 0.00 0.00 0.00 93 1015.8
20221202164504 42 8 0.0 0.0 0.00 0.00 0.00 93 1015.8
20221202163959 42 359 0.0 0.0 0.00 0.00 0.00 92 1015.8
20221202163458 42 359 0.0 0.0 0.00 0.00 0.00 92 1015.8
20221202162945 42 359 0.0 0.0 0.00 0.00 0.00 91 1015.8
20221202162444 42 359 0.0 0.0 0.00 0.00 0.00 92 1015.8
20221202161932 42 359 0.0 0.0 0.00 0.00 0.00 92 1015.8
20221202161418 42 359 0.0 0.0 0.00 0.00 0.00 91 1015.8
20221202160414 43 355 0.0 0.0 0.00 0.00 0.00 89 1015.8
20221202155901 44 355 0.0 0.0 0.00 0.00 0.00 89 1015.8
20221202155357 44 356 0.0 0.0 0.00 0.00 0.00 89 1015.8
20221202154856 44 12 0.0 0.0 0.00 0.00 0.00 87 1015.8
20221202153829 46 12 0.0 0.0 0.00 0.00 0.00 85 1015.8
20221202153326 46 12 0.0 0.0 0.00 0.00 0.00 84 1015.8
20221202152826 47 12 0.0 0.0 0.00 0.00 0.00 83 1015.8
20221202151809 47 12 0.0 0.0 0.00 0.00 0.00 82 1015.8
20221202151308 47 12 0.0 0.0 0.00 0.00 0.00 82 1015.8
20221202150805 47 12 0.0 0.0 0.00 0.00 0.00 82 1015.8
20221202150303 47 12 0.0 0.0 0.00 0.00 0.00 82 1015.8
20221202145752 48 12 0.0 0.0 0.00 0.00 0.00 82 1015.8
20221202145230 48 12 0.0 0.0 0.00 0.00 0.00 82 1015.8
20221202144718 48 12 0.0 0.0 0.00 0.00 0.00 81 1015.8
20221202144206 48 12 0.0 0.0 0.00 0.00 0.00 81 1015.8
20221202143646 48 12 0.0 0.0 0.00 0.00 0.00 79 1015.8
20221202143132 48 12 0.0 0.0 0.00 0.00 0.00 79 1015.8
20221202142115 49 12 0.0 0.0 0.00 0.00 0.00 78 1015.8
20221202141613 49 13 0.0 0.0 0.00 0.00 0.00 77 1015.8
20221202141101 48 13 0.0 0.0 0.00 0.00 0.00 77 1015.8
20221202140558 48 13 0.0 0.0 0.00 0.00 0.00 78 1015.8
20221202135012 47 346 0.0 0.0 0.00 0.00 0.00 78 1015.8
20221202134509 47 346 0.0 0.0 0.00 0.00 0.00 78 1015.8
20221202133453 47 346 0.0 0.9 0.00 0.00 0.00 79 1015.8
20221202132951 47 346 0.0 1.7 0.00 0.00 0.00 80 1015.8
20221202132447 47 313 1.7 1.7 0.00 0.00 0.00 79 1015.8
20221202131945 48 8 0.0 0.0 0.00 0.00 0.00 78 1015.8
20221202131444 47 9 0.0 0.0 0.00 0.00 0.00 79 1015.8
20221202130932 47 9 0.0 0.0 0.00 0.00 0.00 79 1015.8
20221202130427 47 9 0.0 0.0 0.00 0.00 0.00 80 1015.8
20221202125909 47 9 0.0 0.0 0.00 0.00 0.00 80 1015.8
20221202125356 46 2 0.0 0.0 0.00 0.00 0.00 79 1015.8
20221202124854 46 28 0.0 0.0 0.00 0.00 0.00 82 1015.8
20221202124340 46 27 0.0 0.0 0.00 0.00 0.00 82 1015.8
20221202123837 45 27 0.0 0.0 0.00 0.00 0.00 82 1015.8
20221202123337 45 27 0.0 0.0 0.00 0.00 0.00 84 1015.8
20221202122821 45 27 0.0 0.0 0.00 0.00 0.00 84 1015.8
20221202121808 45 27 0.0 0.0 0.00 0.00 0.00 85 1015.8
20221202121242 45 27 0.0 0.0 0.00 0.00 0.00 85 1015.8
20221202120730 44 27 0.0 0.0 0.00 0.00 0.00 85 1015.8
20221202120226 44 27 0.0 0.0 0.00 0.00 0.00 85 1015.8
20221202115214 44 27 0.0 0.0 0.00 0.00 0.00 85 1016.8
20221202114701 44 27 0.0 0.0 0.00 0.00 0.00 85 1016.8
20221202114127 44 27 0.0 0.0 0.00 0.00 0.00 85 1016.8
20221202113625 44 27 0.0 0.0 0.00 0.00 0.00 86 1016.8
20221202113111 44 27 0.0 0.0 0.00 0.00 0.00 87 1016.8
20221202112609 44 27 0.0 0.0 0.00 0.00 0.00 86 1016.8
20221202111556 43 357 0.0 0.0 0.00 0.00 0.00 88 1016.8
20221202111030 43 357 0.0 0.0 0.00 0.00 0.00 87 1016.8
20221202110524 43 357 0.0 0.0 0.00 0.00 0.00 87 1016.8
20221202105514 42 11 0.0 0.0 0.00 0.00 0.00 89 1016.8
20221202104950 42 4 0.0 0.0 0.00 0.00 0.00 88 1016.8
20221202104452 42 4 0.0 0.0 0.00 0.00 0.00 89 1016.8
20221202103924 42 358 0.0 0.0 0.00 0.00 0.00 91 1016.8
20221202103427 42 358 0.0 0.0 0.00 0.00 0.00 92 1016.8
20221202102921 42 358 0.0 0.0 0.00 0.00 0.00 91 1016.8
20221202102411 41 358 0.0 0.0 0.00 0.00 0.00 92 1016.8
20221202101852 41 355 0.0 0.0 0.00 0.00 0.00 92 1016.8
20221202101355 41 351 0.0 0.0 0.00 0.00 0.00 94 1016.8
20221202100846 41 350 0.0 0.0 0.00 0.00 0.00 94 1016.8
20221202100350 40 348 0.0 0.0 0.00 0.00 0.00 95 1016.8
20221202095842 40 342 0.0 0.0 0.00 0.00 0.00 95 1016.8
20221202095331 39 342 0.0 0.0 0.00 0.00 0.00 96 1016.8
20221202095027 39 342 0.0 0.0 0.00 0.00 0.00 96 1016.8
20221202094934 38 342 0.0 0.0 0.00 0.00 0.00 96 1016.8
20221202094618 38 342 0.0 1.7 0.00 0.00 0.00 96 1016.8
20221202094049 38 342 0.0 1.7 0.00 0.00 0.00 96 1016.8
20221202093409 38 346 0.0 0.0 0.00 0.00 0.00 96 1016.8
20221202092814 37 346 0.0 0.0 0.00 0.00 0.00 96 1016.8
20221202092155 37 346 0.0 0.0 0.00 0.01 0.00 96 1016.8
20221202091508 37 359 0.0 0.0 0.00 0.01 0.00 97 1017.8
20221202090913 36 0 0.0 0.0 0.00 0.01 0.00 97 1017.8
20221202085633 36 0 0.0 0.0 0.00 0.01 0.00 96 1016.8
20221202085134 36 11 0.0 0.0 0.00 0.01 0.00 97 1016.8
20221202084607 36 11 0.0 0.0 0.00 0.01 0.00 96 1016.8
20221202084052 36 11 0.0 0.0 0.00 0.01 0.00 96 1016.8
20221202083537 36 11 0.0 0.0 0.00 0.01 0.00 97 1016.8
20221202083029 36 11 0.0 0.0 0.00 0.01 0.00 97 1016.8
20221202082526 36 11 0.0 0.0 0.00 0.01 0.00 97 1016.8
20221202082009 35 11 0.0 0.0 0.00 0.01 0.00 97 1016.8
20221202081509 35 11 0.0 0.0 0.00 0.01 0.00 97 1016.8
20221202075922 35 11 0.0 0.0 0.00 0.01 0.00 97 1016.8
20221202075404 35 11 0.0 0.0 0.00 0.01 0.00 97 1016.8
20221202074900 35 11 0.0 0.0 0.00 0.01 0.00 97 1016.8
20221202074359 35 15 0.0 0.0 0.00 0.01 0.00 97 1016.8
20221202073857 35 14 0.0 0.0 0.00 0.01 0.00 97 1016.8
20221202073352 34 15 0.0 0.0 0.00 0.01 0.00 97 1016.8
20221202072848 34 14 0.0 0.0 0.00 0.01 0.00 97 1016.8
20221202072344 34 15 0.0 0.0 0.00 0.01 0.00 97 1016.8
20221202071845 34 14 0.0 0.0 0.00 0.01 0.00 97 1016.8
20221202071339 34 14 0.0 0.0 0.00 0.01 0.00 97 1016.8
20221202070838 34 359 0.0 0.0 0.00 0.01 0.00 97 1016.8
20221202065812 34 359 0.0 0.0 0.00 0.01 0.00 97 1016.8
20221202065258 34 359 0.0 0.0 0.00 0.01 0.00 97 1016.8
20221202064746 34 359 0.0 0.0 0.00 0.01 0.00 97 1016.8
20221202063728 34 348 0.0 0.0 0.00 0.01 0.00 97 1016.8
20221202062712 34 348 0.0 0.0 0.00 0.01 0.00 98 1016.8